This is the latest recevied weather packets stored in our database for station/object DC7RY. If no packets are shown the sender has not sent any weather packets the latest 10 day(s).
| Time | Temp. | Humidity | Pressure | Rain* | Wind** | Luminosity | Snow |
|---|---|---|---|---|---|---|---|
| 1777567221 | 17.78° C | 31% | 1020.4 hPa | 0 mm | - | 248 W/m² | - |
| 1777566629 | 17.78° C | 30% | 1020.4 hPa | 0 mm | - | 251 W/m² | - |
| 1777566021 | 17.78° C | 32% | 1020.5 hPa | 0 mm | - | 273 W/m² | - |
| 1777565429 | 17.78° C | 30% | 1020.5 hPa | 0 mm | - | 298 W/m² | - |
| 1777564821 | 17.78° C | 31% | 1020.5 hPa | 0 mm | - | 304 W/m² | - |
| 1777564229 | 17.78° C | 31% | 1020.5 hPa | 0 mm | - | 311 W/m² | - |
| 1777563621 | 17.78° C | 30% | 1020.4 hPa | 0 mm | - | 322 W/m² | - |
| 1777563029 | 17.78° C | 31% | 1020.5 hPa | 0 mm | - | 326 W/m² | - |
| 1777562421 | 17.78° C | 31% | 1020.5 hPa | 0 mm | - | 336 W/m² | - |
| 1777561829 | 17.78° C | 30% | 1020.6 hPa | 0 mm | - | 346 W/m² | - |
| 1777561221 | 17.78° C | 29% | 1020.7 hPa | 0 mm | - | 353 W/m² | - |
| 1777560629 | 17.78° C | 29% | 1020.7 hPa | 0 mm | - | 358 W/m² | - |
| 1777560021 | 18.33° C | 28% | 1021 hPa | 0 mm | - | 369 W/m² | - |
| 1777559429 | 18.33° C | 27% | 1021 hPa | 0 mm | - | 374 W/m² | - |
| 1777558821 | 18.33° C | 28% | 1021.1 hPa | 0 mm | - | 380 W/m² | - |
| 1777558229 | 17.78° C | 28% | 1021.2 hPa | 0 mm | - | 386 W/m² | - |
| 1777557621 | 17.22° C | 30% | 1021.3 hPa | 0 mm | - | 386 W/m² | - |
| 1777557029 | 16.67° C | 28% | 1021.2 hPa | 0 mm | - | 382 W/m² | - |
| 1777556421 | 16.67° C | 28% | 1021.3 hPa | 0 mm | - | 386 W/m² | - |
| 1777555829 | 16.67° C | 29% | 1021.5 hPa | 0 mm | - | 385 W/m² | - |
| 1777555220 | 16.11° C | 30% | 1021.5 hPa | 0 mm | - | 390 W/m² | - |
| 1777554628 | 15.56° C | 29% | 1021.6 hPa | 0 mm | - | 389 W/m² | - |
| 1777554019 | 15.56° C | 30% | 1021.7 hPa | 0 mm | - | 384 W/m² | - |
| 1777553428 | 15° C | 29% | 1021.7 hPa | 0 mm | - | 352 W/m² | - |
| 1777552819 | 15° C | 30% | 1021.9 hPa | 0 mm | - | 182 W/m² | - |
* Rain latest hour (hover to see other rain measurements)
** Current wind speed in m/s (hover to see current wind gust speed)